Home > Weather > Halton Hills > Past weeks

Flag for Canada Past Weather in Halton Hills, Ontario, Canada — Yesterday and Last 2 Weeks

Now
77 °F

Passing clouds.


Feels Like: 79 °F
Forecast: 63 / 83 °F
Wind: 2 mph from North

Location: Toronto Pearson International Airport

Current Time: Jul 27, 2016 at 10:54:45 PM

Latest Report: Jul 27, 2016 at 10:00 PM


Visibility: 15 mi

Pressure: 29.91 "Hg

Humidity: 74%

Dew Point: 68 °F

Location of Halton HillsLocation

Past Weather in Halton Hills — Graph

°F

Halton Hills Temperature Yesterday

Maximum temperature yesterday: 86 °F (at 6:00 PM)
Minimum temperature yesterday: 64 °F (at 5:00 AM)
Average temperature yesterday: 76 °F

High & Low Weather Summary for the Past Weeks

 TemperatureHumidityPressure
High95 °F (Jul 13, 3:00 PM)94% (Jul 14, 1:00 AM)30.28 "Hg (Jul 14, 1:00 AM)
Low57 °F (Jul 17, 5:00 AM)26% (Jul 22, 6:00 PM)29.71 "Hg (Jul 14, 6:00 PM)
Average76 °F58%29.96 "Hg
* Reported Jul 12 9:00 PM — Jul 27 9:00 PM, Halton Hills, Weather by CustomWeather, © 2016

Note: Actual official high and low records may vary slightly from our data, if they occured in-between our weather recording intervals... More about our weather records

Advertising

Halton Hills Weather History for the Previous 24 Hours

Scroll right to see more
 ConditionsComfort  
Time TempWeatherWind HumidityBarometerVisibility
9:00 PM
Wed, Jul 27
75 °FBroken clouds.3 mph78%29.91 "Hg15 mi
8:00 PM79 °FBroken clouds.12 mph70%29.90 "Hg15 mi
7:00 PM88 °FPartly sunny.16 mph46%29.87 "Hg15 mi
6:00 PM90 °FScattered showers. Broken clouds.14 mph41%29.87 "Hg15 mi
5:00 PM91 °FBroken clouds.10 mph38%29.86 "Hg15 mi
4:00 PM93 °FScattered clouds.17 mph34%29.87 "Hg15 mi
3:00 PM91 °FScattered clouds.15 mph36%29.89 "Hg15 mi
2:00 PM91 °FPassing clouds.17 mph34%29.90 "Hg15 mi
1:00 PM90 °FPassing clouds.17 mph38%29.91 "Hg15 mi
12:00 PM90 °FScattered clouds.14 mph41%29.92 "Hg15 mi
11:00 AM88 °FPassing clouds.12 mph40%29.93 "Hg15 mi
10:00 AM82 °FPassing clouds.10 mph51%29.94 "Hg15 mi
9:00 AM79 °FPassing clouds.12 mph58%29.95 "Hg15 mi
8:00 AM73 °FPassing clouds.5 mph69%29.96 "Hg15 mi
7:00 AM70 °FPassing clouds.2 mph69%29.95 "Hg15 mi
6:00 AM68 °FPartly cloudy.2 mph73%29.95 "Hg15 mi
5:00 AM68 °FPassing clouds.3 mph69%29.95 "Hg15 mi
4:00 AM66 °FPassing clouds.No wind73%29.96 "Hg15 mi
3:00 AM68 °FClear.5 mph73%29.96 "Hg15 mi
2:00 AM72 °FClear.2 mph65%29.95 "Hg15 mi
1:00 AM73 °FClear.2 mph61%29.96 "Hg15 mi
12:00 AM73 °FClear.6 mph61%29.96 "Hg15 mi
11:00 PM
Tue, Jul 26
75 °FClear.3 mph57%29.95 "Hg15 mi
10:00 PM79 °FClear.8 mph51%29.96 "Hg15 mi
Weather by CustomWeather, © 2016

See weather overviewHow to use our weather pages